Change the Weather History Date:

Saturday, June 22, 2013

  Actual Average Record
Temperature  
Mean Temperature 79 °F -  
Max Temperature 90 °F 87 °F 102 °F (2006)
Min Temperature 69 °F 69 °F 66 °F (2007)
Cooling Degree Days 14    
Growing Degree Days 29 (Base 50)    
Moisture  
Dew Point 67 °F    
Average Humidity 66    
Maximum Humidity 92    
Minimum Humidity 45    
Precipitation  
Precipitation 0.00 in - - ()
Sea Level Pressure  
Sea Level Pressure 30.12 in    
Wind  
Wind Speed 4 mph (NE)    
Max Wind Speed 12 mph    
Max Gust Speed -    
Visibility 10 miles    
Events      
Averages and records for this station are not official NWS values.
T = Trace of Precipitation, MM = Missing Value Source: NWS Daily Summary

Daily Weather History Graph

Daily Weather History Graph

Search for Another Location

Airport or City:

Trip Planner

Search our weather history database for the weather conditions in past years. The results will help you decide how hot, cold, wet, or windy it might be!

Date:

Astronomy

Jun. 22, 2013 Rise Set
Actual Time 5:39 AM CDT 7:55 PM CDT
Civil Twilight 5:10 AM CDT 8:24 PM CDT
Nautical Twilight 4:35 AM CDT 8:59 PM CDT
Astronomical Twilight 3:58 AM CDT 9:36 PM CDT
Moon 7:13 PM CDT (6/22) 4:47 AM CDT (6/22)
Length of Visible Light 15h 13m
Length of Day
14h 16m
Waxing Gibbous, 99% of the Moon is Illuminated
Jun 22
Waxing Gibbous
Jun 23
Full
Jun 29
Last Quarter
Jul 8
New
Jul 15
First Quarter

Hourly Weather History & Observations

Time (CDT) Temp. Heat Index Dew Point Humidity Pressure Visibility Wind Dir Wind Speed Gust Speed Precip Events Conditions
12:58 AM 72.3 °F - 68.5 °F 88% 30.14 in 10.0 mi North 2.3 mph - N/A   Clear
1:58 AM 71.1 °F - 67.1 °F 87% 30.13 in 10.0 mi NNE 3.5 mph - N/A   Clear
2:58 AM 69.6 °F - 67.3 °F 92% 30.12 in 10.0 mi NNW 2.3 mph - N/A   Clear
3:58 AM 70.5 °F - 66.4 °F 87% 30.12 in 10.0 mi NNE 3.5 mph - N/A   Clear
4:58 AM 70.5 °F - 65.1 °F 83% 30.12 in 10.0 mi NE 2.3 mph - N/A   Clear
5:58 AM 69.8 °F - 65.1 °F 85% 30.14 in 10.0 mi NNE 2.3 mph - N/A   Clear
6:58 AM 72.1 °F - 65.8 °F 80% 30.16 in 10.0 mi ENE 4.6 mph - N/A   Clear
7:58 AM 75.9 °F - 66.4 °F 72% 30.17 in 10.0 mi ENE 3.5 mph - N/A   Clear
8:58 AM 79.0 °F - 67.6 °F 68% 30.18 in 10.0 mi Variable 2.3 mph - N/A   Clear
9:58 AM 82.8 °F 85.3 °F 67.1 °F 59% 30.18 in 10.0 mi SSE 6.9 mph - N/A   Clear
10:58 AM 84.7 °F 87.4 °F 66.9 °F 55% 30.19 in 10.0 mi Variable 5.8 mph - N/A   Scattered Clouds
11:58 AM 86.4 °F 88.4 °F 65.7 °F 50% 30.18 in 9.0 mi NE 8.1 mph - N/A   Partly Cloudy
12:58 PM 87.1 °F 89.5 °F 66.2 °F 50% 30.16 in 10.0 mi NE 11.5 mph - N/A   Partly Cloudy
1:58 PM 88.3 °F 90.5 °F 66.0 °F 47% 30.14 in 10.0 mi North 10.4 mph - N/A   Partly Cloudy
2:58 PM 87.6 °F 90.1 °F 66.0 °F 49% 30.12 in 10.0 mi NNE 5.8 mph - N/A   Scattered Clouds
3:58 PM 89.6 °F 91.8 °F 65.5 °F 45% 30.09 in 10.0 mi Variable 2.3 mph - N/A   Clear
4:58 PM 89.2 °F 91.3 °F 65.1 °F 45% 30.06 in 10.0 mi ENE 8.1 mph - N/A   Clear
5:58 PM 88.2 °F 90.6 °F 66.2 °F 48% 30.06 in 10.0 mi ENE 9.2 mph - N/A   Clear
6:58 PM 86.5 °F 89.0 °F 66.2 °F 51% 30.06 in 10.0 mi NE 6.9 mph - N/A   Clear
7:58 PM 83.1 °F 85.4 °F 66.6 °F 57% 30.06 in 10.0 mi ENE 4.6 mph - N/A   Clear
8:58 PM 79.2 °F - 68.0 °F 69% 30.08 in 10.0 mi NE 4.6 mph - N/A   Clear
9:58 PM 79.0 °F - 68.4 °F 70% 30.09 in 10.0 mi NE 5.8 mph - N/A   Clear
10:58 PM 76.5 °F - 68.5 °F 76% 30.12 in 10.0 mi ESE 3.5 mph - N/A   Partly Cloudy
11:58 PM 77.4 °F - 68.0 °F 73% 30.12 in 10.0 mi SE 6.9 mph - N/A   Clear